Location: Newark
(42.9260°N, 89.3850°W)
Time: 22:33:40
(UTC+00:00)

STARLINK 1059 - Pass Details

Date: 11 December 2019
Orbit: 474 x 476 km, 53.0° (Epoch: 24 January)

Event Time Altitude Azimuth Distance (km) Brightness Sun altitude
Exits shadow 11:15:53 29° 185° (S) 846 4.6 -21.6°
Drops below altitude 10° 11:18:03 10° 156° (SSE) 1,553 6.4 -21.2°
Sets 11:20:16 0° 148° (SSE) 2,425 7.6 -20.8°
